KINEIS-3B

Last updated on Thu Sep 24 2026 00:03:12 GMT+0000 (Coordinated Universal Time)

1 61224U 24172E 26265.74343117 .00001180 00000+0 19442-3 0 9994 2 61224 98.0394 354.6935 0003138 109.9139 250.2407 14.72344454107705
UTC large
Height (km)
Speed (km/s)
/
Latitude / Longitude
Inclination (degrees)
Orbital Period (minutes)
Azimuth
Elevation
Range (km)
Doppler Factor

Next 0 passes for location: London (51.5072 / 0.1276)

No passes found over London.
KINEIS-3B